Time,TemperatureF,DewpointF,PressureIn,WindDirection,WindDirectionDegrees,WindSpeedMPH,WindSpeedGustMPH,Humidity,HourlyPrecipIn,Conditions,Clouds,dailyrainin,SoftwareType,DateUTC
2013-02-03 00:00:00,51.0,47.0,30.16,SW,230,0.0,0.0,86,0.00,,,0.00,VWS V14.01,2013-02-03 05:00:00,
2013-02-03 00:03:00,51.0,47.0,30.16,SW,230,0.0,1.0,86,0.00,,,0.00,VWS V14.01,2013-02-03 05:03:00,
2013-02-03 00:08:00,51.1,46.8,30.16,SW,230,0.0,1.0,85,0.00,,,0.00,VWS V14.01,2013-02-03 05:08:00,
2013-02-03 00:09:00,51.1,46.8,30.16,SW,230,0.0,0.0,85,0.00,,,0.00,VWS V14.01,2013-02-03 05:09:00,
2013-02-03 00:15:00,51.2,46.5,30.15,SW,230,0.0,1.0,84,0.00,,,0.00,VWS V14.01,2013-02-03 05:15:00,
2013-02-03 00:21:00,51.0,46.3,30.15,SW,230,0.0,0.0,84,0.00,,,0.00,VWS V14.01,2013-02-03 05:21:00,
2013-02-03 00:27:00,50.8,46.2,30.15,SW,230,0.0,0.0,84,0.00,,,0.00,VWS V14.01,2013-02-03 05:27:00,
2013-02-03 00:33:00,50.6,45.6,30.15,SW,230,0.0,0.0,83,0.00,,,0.00,VWS V14.01,2013-02-03 05:33:00,
2013-02-03 00:38:00,50.4,45.4,30.15,SW,231,0.0,0.0,83,0.00,,,0.00,VWS V14.01,2013-02-03 05:38:00,
2013-02-03 00:43:00,50.3,45.0,30.15,SW,230,0.0,0.0,82,0.00,,,0.00,VWS V14.01,2013-02-03 05:43:00,
2013-02-03 00:48:00,49.9,44.6,30.15,SW,230,0.0,0.0,82,0.00,,,0.00,VWS V14.01,2013-02-03 05:48:00,
2013-02-03 00:53:00,49.7,44.4,30.15,SW,230,0.0,0.0,82,0.00,,,0.00,VWS V14.01,2013-02-03 05:53:00,
2013-02-03 00:58:00,49.6,43.7,30.15,SW,230,0.0,0.0,80,0.00,,,0.00,VWS V14.01,2013-02-03 05:58:00,
2013-02-03 01:03:00,49.6,42.0,30.14,SW,230,0.0,1.0,75,0.00,,,0.00,VWS V14.01,2013-02-03 06:03:00,
2013-02-03 01:08:00,49.8,40.0,30.14,SW,230,0.0,1.0,69,0.00,,,0.00,VWS V14.01,2013-02-03 06:08:00,
2013-02-03 01:13:00,50.0,38.3,30.14,SW,230,0.0,1.0,64,0.00,,,0.00,VWS V14.01,2013-02-03 06:13:00,
2013-02-03 01:18:00,50.0,37.5,30.14,SW,230,0.0,1.0,62,0.00,,,0.00,VWS V14.01,2013-02-03 06:18:00,
2013-02-03 01:23:00,50.0,36.7,30.14,SW,231,0.0,3.0,60,0.00,,,0.00,VWS V14.01,2013-02-03 06:23:00,
2013-02-03 01:28:00,49.9,35.7,30.14,West,273,0.0,5.0,58,0.00,,,0.00,VWS V14.01,2013-02-03 06:28:00,
2013-02-03 01:33:00,49.7,34.7,30.14,West,268,0.0,3.0,56,0.00,,,0.00,VWS V14.01,2013-02-03 06:33:00,
2013-02-03 01:38:00,49.4,34.4,30.14,West,269,0.0,2.0,56,0.00,,,0.00,VWS V14.01,2013-02-03 06:38:00,
2013-02-03 01:43:00,49.1,34.1,30.14,WSW,254,0.0,3.0,56,0.00,,,0.00,VWS V14.01,2013-02-03 06:43:00,
2013-02-03 01:48:00,48.8,33.8,30.13,WSW,242,0.0,4.0,56,0.00,,,0.00,VWS V14.01,2013-02-03 06:48:00,
2013-02-03 01:53:00,48.7,34.2,30.13,WSW,243,0.0,2.0,57,0.00,,,0.00,VWS V14.01,2013-02-03 06:53:00,
2013-02-03 01:58:00,48.5,34.8,30.13,WSW,243,0.0,1.0,59,0.00,,,0.00,VWS V14.01,2013-02-03 06:58:00,
2013-02-03 02:03:00,48.2,35.0,30.13,WSW,243,1.0,1.0,60,0.00,,,0.00,VWS V14.01,2013-02-03 07:03:00,
2013-02-03 02:08:00,47.9,34.3,30.12,WSW,243,0.0,2.0,59,0.00,,,0.00,VWS V14.01,2013-02-03 07:08:00,
2013-02-03 02:13:00,47.7,34.5,30.12,WSW,243,0.0,3.0,60,0.00,,,0.00,VWS V14.01,2013-02-03 07:13:00,
2013-02-03 02:18:00,47.5,34.7,30.12,WNW,285,0.0,3.0,61,0.00,,,0.00,VWS V14.01,2013-02-03 07:18:00,
2013-02-03 02:23:00,47.3,35.0,30.12,WNW,285,0.0,1.0,62,0.00,,,0.00,VWS V14.01,2013-02-03 07:23:00,
2013-02-03 02:28:00,47.0,34.7,30.12,WNW,285,0.0,0.0,62,0.00,,,0.00,VWS V14.01,2013-02-03 07:28:00,
2013-02-03 02:33:00,46.7,34.8,30.12,WNW,285,0.0,1.0,63,0.00,,,0.00,VWS V14.01,2013-02-03 07:33:00,
2013-02-03 02:38:00,46.5,34.6,30.12,WNW,285,0.0,0.0,63,0.00,,,0.00,VWS V14.01,2013-02-03 07:38:00,
2013-02-03 02:43:00,46.6,34.3,30.11,SW,233,0.0,4.0,62,0.00,,,0.00,VWS V14.01,2013-02-03 07:43:00,
2013-02-03 02:48:00,46.7,34.4,30.11,SW,234,0.0,1.0,62,0.00,,,0.00,VWS V14.01,2013-02-03 07:48:00,
2013-02-03 02:53:00,46.7,34.4,30.11,WNW,284,0.0,5.0,62,0.00,,,0.00,VWS V14.01,2013-02-03 07:53:00,
2013-02-03 02:58:00,46.6,33.9,30.12,West,275,0.0,3.0,61,0.00,,,0.00,VWS V14.01,2013-02-03 07:58:00,
2013-02-03 03:03:00,46.5,34.2,30.12,West,276,0.0,1.0,62,0.00,,,0.00,VWS V14.01,2013-02-03 08:03:00,
2013-02-03 03:08:00,46.3,34.4,30.12,West,275,0.0,0.0,63,0.00,,,0.00,VWS V14.01,2013-02-03 08:08:00,
2013-02-03 03:13:00,46.3,34.0,30.12,WSW,239,1.0,3.0,62,0.00,,,0.00,VWS V14.01,2013-02-03 08:13:00,
2013-02-03 03:18:00,46.5,34.2,30.12,WSW,239,0.0,2.0,62,0.00,,,0.00,VWS V14.01,2013-02-03 08:18:00,
2013-02-03 03:23:00,46.8,33.7,30.12,WSW,256,0.0,3.0,60,0.00,,,0.00,VWS V14.01,2013-02-03 08:23:00,
2013-02-03 03:28:00,47.1,33.9,30.11,WSW,253,0.0,4.0,60,0.00,,,0.00,VWS V14.01,2013-02-03 08:28:00,
2013-02-03 03:33:00,47.5,33.9,30.11,WSW,258,3.0,6.0,59,0.00,,,0.00,VWS V14.01,2013-02-03 08:33:00,
2013-02-03 03:38:00,47.8,34.2,30.11,SW,235,0.0,5.0,59,0.00,,,0.00,VWS V14.01,2013-02-03 08:38:00,
2013-02-03 03:43:00,47.9,34.3,30.11,West,268,0.0,4.0,59,0.00,,,0.00,VWS V14.01,2013-02-03 08:43:00,
2013-02-03 03:48:00,48.1,34.0,30.11,SW,227,0.0,5.0,58,0.00,,,0.00,VWS V14.01,2013-02-03 08:48:00,
2013-02-03 03:53:00,48.1,34.0,30.11,WSW,247,0.0,3.0,58,0.00,,,0.00,VWS V14.01,2013-02-03 08:53:00,
2013-02-03 03:58:00,48.1,34.5,30.11,WSW,246,0.0,2.0,59,0.00,,,0.00,VWS V14.01,2013-02-03 08:58:00,
2013-02-03 04:03:00,48.1,34.5,30.11,SW,233,0.0,2.0,59,0.00,,,0.00,VWS V14.01,2013-02-03 09:03:00,
2013-02-03 04:08:00,48.1,34.5,30.11,WSW,237,0.0,2.0,59,0.00,,,0.00,VWS V14.01,2013-02-03 09:08:00,
2013-02-03 04:13:00,48.0,34.8,30.12,WSW,237,0.0,2.0,60,0.00,,,0.00,VWS V14.01,2013-02-03 09:13:00,
2013-02-03 04:18:00,47.8,34.6,30.12,WNW,284,1.0,3.0,60,0.00,,,0.00,VWS V14.01,2013-02-03 09:18:00,
2013-02-03 04:23:00,47.7,34.9,30.12,West,280,0.0,3.0,61,0.00,,,0.00,VWS V14.01,2013-02-03 09:23:00,
2013-02-03 04:28:00,47.6,34.8,30.12,West,281,0.0,2.0,61,0.00,,,0.00,VWS V14.01,2013-02-03 09:28:00,
2013-02-03 04:33:00,47.5,34.7,30.12,SW,236,3.0,4.0,61,0.00,,,0.00,VWS V14.01,2013-02-03 09:33:00,
2013-02-03 04:38:00,47.6,35.2,30.12,West,268,0.0,4.0,62,0.00,,,0.00,VWS V14.01,2013-02-03 09:38:00,
2013-02-03 04:43:00,47.6,35.6,30.12,West,266,0.0,2.0,63,0.00,,,0.00,VWS V14.01,2013-02-03 09:43:00,
2013-02-03 04:48:00,47.7,35.7,30.12,West,266,0.0,3.0,63,0.00,,,0.00,VWS V14.01,2013-02-03 09:48:00,
2013-02-03 04:53:00,47.8,36.2,30.12,SW,226,0.0,3.0,64,0.00,,,0.00,VWS V14.01,2013-02-03 09:53:00,
2013-02-03 04:58:00,47.8,35.8,30.12,WSW,248,1.0,4.0,63,0.00,,,0.00,VWS V14.01,2013-02-03 09:58:00,
2013-02-03 05:03:00,47.8,35.8,30.13,SW,235,3.0,7.0,63,0.00,,,0.00,VWS V14.01,2013-02-03 10:03:00,
2013-02-03 05:08:00,47.8,36.2,30.13,WSW,255,1.0,5.0,64,0.00,,,0.00,VWS V14.01,2013-02-03 10:08:00,
2013-02-03 05:13:00,47.7,36.1,30.13,WSW,242,4.0,5.0,64,0.00,,,0.00,VWS V14.01,2013-02-03 10:13:00,
2013-02-03 05:18:00,47.5,35.9,30.13,West,260,1.0,7.0,64,0.00,,,0.00,VWS V14.01,2013-02-03 10:18:00,
2013-02-03 05:23:00,47.2,35.7,30.13,West,272,0.0,7.0,64,0.00,,,0.00,VWS V14.01,2013-02-03 10:23:00,
2013-02-03 05:28:00,47.0,36.2,30.13,SW,218,3.0,6.0,66,0.00,,,0.00,VWS V14.01,2013-02-03 10:28:00,
2013-02-03 05:33:00,46.9,36.2,30.13,WSW,243,1.0,5.0,66,0.00,,,0.00,VWS V14.01,2013-02-03 10:33:00,
2013-02-03 05:38:00,46.8,36.4,30.13,SW,225,0.0,4.0,67,0.00,,,0.00,VWS V14.01,2013-02-03 10:38:00,
2013-02-03 05:43:00,46.8,36.8,30.14,West,266,3.0,4.0,68,0.00,,,0.00,VWS V14.01,2013-02-03 10:43:00,
2013-02-03 05:48:00,46.7,36.7,30.14,West,259,3.0,6.0,68,0.00,,,0.00,VWS V14.01,2013-02-03 10:48:00,
2013-02-03 05:53:00,46.5,36.9,30.14,SW,217,1.0,5.0,69,0.00,,,0.00,VWS V14.01,2013-02-03 10:53:00,
2013-02-03 05:58:00,46.3,36.7,30.14,West,270,0.0,8.0,69,0.00,,,0.00,VWS V14.01,2013-02-03 10:58:00,
2013-02-03 06:03:00,46.1,36.9,30.14,West,276,1.0,6.0,70,0.00,,,0.00,VWS V14.01,2013-02-03 11:03:00,
2013-02-03 06:08:00,46.0,36.8,30.14,West,263,0.0,6.0,70,0.00,,,0.00,VWS V14.01,2013-02-03 11:08:00,
2013-02-03 06:13:00,45.9,37.0,30.14,West,267,1.0,5.0,71,0.00,,,0.00,VWS V14.01,2013-02-03 11:13:00,
2013-02-03 06:19:00,45.8,37.3,30.14,WSW,237,0.0,2.0,72,0.00,,,0.00,VWS V14.01,2013-02-03 11:19:00,
2013-02-03 06:25:00,45.8,37.7,30.14,West,275,0.0,3.0,73,0.00,,,0.00,VWS V14.01,2013-02-03 11:25:00,
2013-02-03 06:31:00,45.8,37.7,30.14,SW,218,1.0,3.0,73,0.00,,,0.00,VWS V14.01,2013-02-03 11:31:00,
2013-02-03 06:37:00,45.9,38.1,30.14,SW,222,0.0,4.0,74,0.00,,,0.00,VWS V14.01,2013-02-03 11:37:00,
2013-02-03 06:43:00,46.0,38.2,30.14,WSW,245,0.0,5.0,74,0.00,,,0.00,VWS V14.01,2013-02-03 11:43:00,
2013-02-03 06:48:00,46.1,38.6,30.14,WSW,237,0.0,6.0,75,0.00,,,0.00,VWS V14.01,2013-02-03 11:48:00,
2013-02-03 06:53:00,46.3,38.8,30.15,SW,222,3.0,6.0,75,0.00,,,0.00,VWS V14.01,2013-02-03 11:53:00,
2013-02-03 06:58:00,46.3,38.8,30.15,WSW,247,2.0,7.0,75,0.00,,,0.00,VWS V14.01,2013-02-03 11:58:00,
2013-02-03 07:03:00,46.3,38.8,30.15,West,265,0.0,7.0,75,0.00,,,0.00,VWS V14.01,2013-02-03 12:03:00,
2013-02-03 07:08:00,46.3,39.2,30.15,WSW,247,2.0,8.0,76,0.00,,,0.00,VWS V14.01,2013-02-03 12:08:00,
2013-02-03 07:13:00,46.3,39.2,30.15,West,261,0.0,4.0,76,0.00,,,0.00,VWS V14.01,2013-02-03 12:13:00,
2013-02-03 07:18:00,46.3,39.2,30.15,West,279,3.0,6.0,76,0.00,,,0.00,VWS V14.01,2013-02-03 12:18:00,
2013-02-03 07:23:00,46.3,39.2,30.16,WSW,253,2.0,5.0,76,0.00,,,0.00,VWS V14.01,2013-02-03 12:23:00,
2013-02-03 07:28:00,46.2,39.4,30.16,WSW,256,0.0,3.0,77,0.00,,,0.00,VWS V14.01,2013-02-03 12:28:00,
2013-02-03 07:33:00,46.1,39.3,30.16,SW,227,0.0,5.0,77,0.00,,,0.00,VWS V14.01,2013-02-03 12:33:00,
2013-02-03 07:38:00,46.1,39.3,30.16,West,259,2.0,7.0,77,0.00,,,0.00,VWS V14.01,2013-02-03 12:38:00,
2013-02-03 07:43:00,46.0,39.2,30.17,WNW,298,4.0,5.0,77,0.00,,,0.00,VWS V14.01,2013-02-03 12:43:00,
2013-02-03 07:48:00,46.0,39.5,30.17,West,262,0.0,8.0,78,0.00,,,0.00,VWS V14.01,2013-02-03 12:48:00,
2013-02-03 07:53:00,46.1,39.6,30.17,West,266,1.0,6.0,78,0.00,,,0.00,VWS V14.01,2013-02-03 12:53:00,
2013-02-03 07:58:00,46.3,39.8,30.17,WSW,248,0.0,3.0,78,0.00,,,0.00,VWS V14.01,2013-02-03 12:58:00,
2013-02-03 08:03:00,46.4,40.2,30.18,West,272,2.0,2.0,79,0.00,,,0.00,VWS V14.01,2013-02-03 13:03:00,
2013-02-03 08:08:00,46.5,40.3,30.18,West,272,0.0,5.0,79,0.00,,,0.00,VWS V14.01,2013-02-03 13:08:00,
2013-02-03 08:13:00,46.8,40.3,30.18,WSW,256,0.0,8.0,78,0.00,,,0.00,VWS V14.01,2013-02-03 13:13:00,
2013-02-03 08:18:00,47.0,40.5,30.18,WSW,238,0.0,5.0,78,0.00,,,0.00,VWS V14.01,2013-02-03 13:18:00,
2013-02-03 08:23:00,47.2,40.7,30.18,West,276,5.0,6.0,78,0.00,,,0.00,VWS V14.01,2013-02-03 13:23:00,
2013-02-03 08:28:00,47.4,40.9,30.18,West,269,2.0,5.0,78,0.00,,,0.00,VWS V14.01,2013-02-03 13:28:00,
2013-02-03 08:33:00,47.7,41.2,30.18,NNW,334,0.0,3.0,78,0.00,,,0.00,VWS V14.01,2013-02-03 13:33:00,
2013-02-03 08:38:00,48.0,41.5,30.18,WNW,290,0.0,1.0,78,0.00,,,0.00,VWS V14.01,2013-02-03 13:38:00,
2013-02-03 08:43:00,48.4,41.5,30.18,NW,311,0.0,1.0,77,0.00,,,0.00,VWS V14.01,2013-02-03 13:43:00,
2013-02-03 08:50:00,48.8,41.6,30.18,WSW,242,0.0,3.0,76,0.00,,,0.00,VWS V14.01,2013-02-03 13:50:00,
2013-02-03 08:56:00,49.2,42.0,30.18,WNW,299,0.0,1.0,76,0.00,,,0.00,VWS V14.01,2013-02-03 13:56:00,
2013-02-03 09:02:00,49.5,41.9,30.18,ENE,75,0.0,4.0,75,0.00,,,0.00,VWS V14.01,2013-02-03 14:02:00,
2013-02-03 09:08:00,50.1,42.5,30.18,NE,53,0.0,6.0,75,0.00,,,0.00,VWS V14.01,2013-02-03 14:08:00,
2013-02-03 09:13:00,50.5,42.5,30.18,ESE,103,0.0,5.0,74,0.00,,,0.00,VWS V14.01,2013-02-03 14:13:00,
2013-02-03 09:18:00,50.7,42.4,30.18,West,270,1.0,7.0,73,0.00,,,0.00,VWS V14.01,2013-02-03 14:18:00,
2013-02-03 09:23:00,50.9,42.2,30.18,NNW,347,7.0,7.0,72,0.00,,,0.00,VWS V14.01,2013-02-03 14:23:00,
2013-02-03 09:28:00,51.1,42.0,30.18,ENE,73,1.0,7.0,71,0.00,,,0.00,VWS V14.01,2013-02-03 14:28:00,
2013-02-03 09:33:00,51.3,41.5,30.18,NW,318,0.0,7.0,69,0.00,,,0.00,VWS V14.01,2013-02-03 14:33:00,
2013-02-03 09:38:00,51.4,41.6,30.18,SW,234,0.0,5.0,69,0.00,,,0.00,VWS V14.01,2013-02-03 14:38:00,
2013-02-03 09:43:00,51.7,41.5,30.18,NE,51,2.0,6.0,68,0.00,,,0.00,VWS V14.01,2013-02-03 14:43:00,
2013-02-03 09:48:00,52.1,41.5,30.19,NW,320,0.0,3.0,67,0.00,,,0.00,VWS V14.01,2013-02-03 14:48:00,
2013-02-03 09:53:00,52.4,41.0,30.18,ENE,70,1.0,6.0,65,0.00,,,0.00,VWS V14.01,2013-02-03 14:53:00,
2013-02-03 09:58:00,52.7,40.9,30.18,South,189,0.0,3.0,64,0.00,,,0.00,VWS V14.01,2013-02-03 14:58:00,
2013-02-03 10:03:00,53.0,40.3,30.18,North,4,1.0,6.0,62,0.00,,,0.00,VWS V14.01,2013-02-03 15:03:00,
2013-02-03 10:08:00,53.3,40.2,30.18,West,259,0.0,3.0,61,0.00,,,0.00,VWS V14.01,2013-02-03 15:08:00,
2013-02-03 10:13:00,53.7,39.7,30.18,NNE,33,0.0,5.0,59,0.00,,,0.00,VWS V14.01,2013-02-03 15:13:00,
2013-02-03 10:18:00,53.9,39.5,30.18,West,278,2.0,5.0,58,0.00,,,0.00,VWS V14.01,2013-02-03 15:18:00,
2013-02-03 10:23:00,54.4,39.5,30.18,West,269,0.0,2.0,57,0.00,,,0.00,VWS V14.01,2013-02-03 15:23:00,
2013-02-03 10:28:00,54.8,39.4,30.18,NNE,19,4.0,4.0,56,0.00,,,0.00,VWS V14.01,2013-02-03 15:28:00,
2013-02-03 10:33:00,54.9,39.0,30.18,West,259,2.0,5.0,55,0.00,,,0.00,VWS V14.01,2013-02-03 15:33:00,
2013-02-03 10:38:00,55.3,39.4,30.18,NE,35,3.0,6.0,55,0.00,,,0.00,VWS V14.01,2013-02-03 15:38:00,
2013-02-03 10:43:00,55.8,38.0,30.18,NNW,343,2.0,6.0,51,0.00,,,0.00,VWS V14.01,2013-02-03 15:43:00,
2013-02-03 10:48:00,56.0,38.2,30.17,WSW,252,0.0,6.0,51,0.00,,,0.00,VWS V14.01,2013-02-03 15:48:00,
2013-02-03 10:53:00,56.3,38.4,30.17,ENE,70,0.0,4.0,51,0.00,,,0.00,VWS V14.01,2013-02-03 15:53:00,
2013-02-03 10:58:00,56.6,38.2,30.17,South,177,1.0,8.0,50,0.00,,,0.00,VWS V14.01,2013-02-03 15:58:00,
2013-02-03 11:03:00,56.8,37.9,30.17,WSW,247,2.0,7.0,49,0.00,,,0.00,VWS V14.01,2013-02-03 16:03:00,
2013-02-03 11:08:00,56.8,37.9,30.17,NE,45,1.0,6.0,49,0.00,,,0.00,VWS V14.01,2013-02-03 16:08:00,
2013-02-03 11:13:00,57.2,38.2,30.17,NNE,26,0.0,6.0,49,0.00,,,0.00,VWS V14.01,2013-02-03 16:13:00,
2013-02-03 11:18:00,57.6,38.6,30.16,North,359,0.0,4.0,49,0.00,,,0.00,VWS V14.01,2013-02-03 16:18:00,
2013-02-03 11:23:00,58.1,38.5,30.16,WNW,290,2.0,6.0,48,0.00,,,0.00,VWS V14.01,2013-02-03 16:23:00,
2013-02-03 11:28:00,58.4,38.3,30.16,West,262,0.0,4.0,47,0.00,,,0.00,VWS V14.01,2013-02-03 16:28:00,
2013-02-03 11:33:00,58.6,37.9,30.16,North,349,2.0,4.0,46,0.00,,,0.00,VWS V14.01,2013-02-03 16:33:00,
2013-02-03 11:38:00,58.9,37.6,30.16,SW,225,6.0,8.0,45,0.00,,,0.00,VWS V14.01,2013-02-03 16:38:00,
2013-02-03 11:43:00,58.8,37.5,30.15,WSW,254,2.0,6.0,45,0.00,,,0.00,VWS V14.01,2013-02-03 16:43:00,
2013-02-03 11:48:00,59.3,37.4,30.15,NNE,27,0.0,4.0,44,0.00,,,0.00,VWS V14.01,2013-02-03 16:48:00,
2013-02-03 11:53:00,59.5,37.6,30.15,North,349,0.0,4.0,44,0.00,,,0.00,VWS V14.01,2013-02-03 16:53:00,
2013-02-03 11:58:00,60.0,37.5,30.14,WSW,241,2.0,6.0,43,0.00,,,0.00,VWS V14.01,2013-02-03 16:58:00,
2013-02-03 12:03:00,60.2,36.4,30.14,SSW,203,3.0,8.0,41,0.00,,,0.00,VWS V14.01,2013-02-03 17:03:00,
2013-02-03 12:08:00,60.4,36.6,30.14,West,268,5.0,6.0,41,0.00,,,0.00,VWS V14.01,2013-02-03 17:08:00,
2013-02-03 12:13:00,60.5,37.9,30.14,SW,218,0.0,9.0,43,0.00,,,0.00,VWS V14.01,2013-02-03 17:13:00,
2013-02-03 12:18:00,61.0,36.5,30.13,SW,235,0.0,8.0,40,0.00,,,0.00,VWS V14.01,2013-02-03 17:18:00,
2013-02-03 12:23:00,61.4,35.6,30.13,WNW,282,0.0,8.0,38,0.00,,,0.00,VWS V14.01,2013-02-03 17:23:00,
2013-02-03 12:28:00,61.4,34.9,30.12,WSW,239,3.0,9.0,37,0.00,,,0.00,VWS V14.01,2013-02-03 17:28:00,
2013-02-03 12:33:00,61.8,34.6,30.12,SSE,154,2.0,6.0,36,0.00,,,0.00,VWS V14.01,2013-02-03 17:33:00,
2013-02-03 12:38:00,62.1,34.8,30.12,WNW,283,6.0,9.0,36,0.00,,,0.00,VWS V14.01,2013-02-03 17:38:00,
2013-02-03 12:43:00,62.1,34.8,30.11,SW,235,8.0,11.0,36,0.00,,,0.00,VWS V14.01,2013-02-03 17:43:00,
2013-02-03 12:48:00,62.1,34.8,30.11,West,259,2.0,11.0,36,0.00,,,0.00,VWS V14.01,2013-02-03 17:48:00,
2013-02-03 12:53:00,62.7,34.7,30.11,NNE,18,0.0,6.0,35,0.00,,,0.00,VWS V14.01,2013-02-03 17:53:00,
2013-02-03 12:58:00,63.0,34.9,30.10,West,267,8.0,8.0,35,0.00,,,0.00,VWS V14.01,2013-02-03 17:58:00,
2013-02-03 13:03:00,63.1,32.8,30.10,North,10,3.0,11.0,32,0.00,,,0.00,VWS V14.01,2013-02-03 18:03:00,
2013-02-03 13:08:00,63.4,34.6,30.10,West,275,4.0,10.0,34,0.00,,,0.00,VWS V14.01,2013-02-03 18:08:00,
2013-02-03 13:13:00,63.5,33.1,30.09,WSW,239,4.0,8.0,32,0.00,,,0.00,VWS V14.01,2013-02-03 18:13:00,
2013-02-03 13:18:00,63.4,34.6,30.09,WSW,258,3.0,7.0,34,0.00,,,0.00,VWS V14.01,2013-02-03 18:18:00,
2013-02-03 13:23:00,63.6,34.7,30.09,SSW,199,4.0,6.0,34,0.00,,,0.00,VWS V14.01,2013-02-03 18:23:00,
2013-02-03 13:28:00,63.6,35.5,30.08,SW,233,5.0,7.0,35,0.00,,,0.00,VWS V14.01,2013-02-03 18:28:00,
2013-02-03 13:33:00,64.0,33.6,30.08,NE,39,0.0,11.0,32,0.00,,,0.00,VWS V14.01,2013-02-03 18:33:00,
2013-02-03 13:38:00,64.4,33.9,30.08,SW,229,5.0,10.0,32,0.00,,,0.00,VWS V14.01,2013-02-03 18:38:00,
2013-02-03 13:43:00,64.2,33.8,30.07,SW,226,2.0,11.0,32,0.00,,,0.00,VWS V14.01,2013-02-03 18:43:00,
2013-02-03 13:48:00,64.5,33.2,30.07,WSW,255,3.0,6.0,31,0.00,,,0.00,VWS V14.01,2013-02-03 18:48:00,
2013-02-03 13:53:00,64.3,33.0,30.07,WSW,238,5.0,14.0,31,0.00,,,0.00,VWS V14.01,2013-02-03 18:53:00,
2013-02-03 13:58:00,64.5,32.4,30.07,SW,216,8.0,9.0,30,0.00,,,0.00,VWS V14.01,2013-02-03 18:58:00,
2013-02-03 14:03:00,64.4,32.3,30.07,West,279,5.0,10.0,30,0.00,,,0.00,VWS V14.01,2013-02-03 19:03:00,
2013-02-03 14:08:00,64.7,31.7,30.06,WNW,289,8.0,8.0,29,0.00,,,0.00,VWS V14.01,2013-02-03 19:08:00,
2013-02-03 14:13:00,64.7,30.9,30.06,WSW,239,3.0,10.0,28,0.00,,,0.00,VWS V14.01,2013-02-03 19:13:00,
2013-02-03 14:18:00,65.2,32.2,30.06,WSW,247,2.0,6.0,29,0.00,,,0.00,VWS V14.01,2013-02-03 19:18:00,
2013-02-03 14:23:00,65.3,31.4,30.06,West,260,6.0,8.0,28,0.00,,,0.00,VWS V14.01,2013-02-03 19:23:00,
2013-02-03 14:28:00,65.4,31.5,30.05,NNE,27,0.0,8.0,28,0.00,,,0.00,VWS V14.01,2013-02-03 19:28:00,
2013-02-03 14:33:00,65.9,33.6,30.05,SW,235,6.0,6.0,30,0.00,,,0.00,VWS V14.01,2013-02-03 19:33:00,
2013-02-03 14:38:00,65.6,32.5,30.05,WNW,298,9.0,9.0,29,0.00,,,0.00,VWS V14.01,2013-02-03 19:38:00,
2013-02-03 14:43:00,65.2,31.3,30.05,SW,236,5.0,10.0,28,0.00,,,0.00,VWS V14.01,2013-02-03 19:43:00,
2013-02-03 14:48:00,65.6,31.6,30.04,SW,221,4.0,11.0,28,0.00,,,0.00,VWS V14.01,2013-02-03 19:48:00,
2013-02-03 14:53:00,66.1,31.2,30.04,SW,236,1.0,5.0,27,0.00,,,0.00,VWS V14.01,2013-02-03 19:53:00,
2013-02-03 14:58:00,66.3,33.1,30.04,WSW,249,6.0,8.0,29,0.00,,,0.00,VWS V14.01,2013-02-03 19:58:00,
2013-02-03 15:03:00,65.9,31.9,30.04,SW,224,5.0,10.0,28,0.00,,,0.00,VWS V14.01,2013-02-03 20:03:00,
2013-02-03 15:08:00,65.5,28.8,30.04,SW,222,6.0,10.0,25,0.00,,,0.00,VWS V14.01,2013-02-03 20:08:00,
2013-02-03 15:13:00,65.8,30.0,30.04,SW,225,2.0,8.0,26,0.00,,,0.00,VWS V14.01,2013-02-03 20:13:00,
2013-02-03 15:18:00,65.9,31.0,30.04,SSW,201,8.0,9.0,27,0.00,,,0.00,VWS V14.01,2013-02-03 20:18:00,
2013-02-03 15:23:00,65.9,30.1,30.04,SW,231,8.0,11.0,26,0.00,,,0.00,VWS V14.01,2013-02-03 20:23:00,
2013-02-03 15:28:00,66.0,29.2,30.04,SW,232,5.0,9.0,25,0.00,,,0.00,VWS V14.01,2013-02-03 20:28:00,
2013-02-03 15:33:00,66.0,29.2,30.03,West,274,3.0,10.0,25,0.00,,,0.00,VWS V14.01,2013-02-03 20:33:00,
2013-02-03 15:38:00,66.2,31.3,30.04,West,266,4.0,8.0,27,0.00,,,0.00,VWS V14.01,2013-02-03 20:38:00,
2013-02-03 15:43:00,66.1,29.3,30.03,SW,231,4.0,9.0,25,0.00,,,0.00,VWS V14.01,2013-02-03 20:43:00,
2013-02-03 15:48:00,66.3,31.4,30.04,West,272,8.0,8.0,27,0.00,,,0.00,VWS V14.01,2013-02-03 20:48:00,
2013-02-03 15:54:00,66.0,29.2,30.04,West,262,8.0,8.0,25,0.00,,,0.00,VWS V14.01,2013-02-03 20:54:00,
2013-02-03 16:00:00,66.1,30.2,30.04,WNW,289,2.0,7.0,26,0.00,,,0.00,VWS V14.01,2013-02-03 21:00:00,
2013-02-03 16:06:00,65.9,31.0,30.04,West,262,6.0,11.0,27,0.00,,,0.00,VWS V14.01,2013-02-03 21:06:00,
2013-02-03 16:12:00,65.9,31.0,30.04,West,264,7.0,10.0,27,0.00,,,0.00,VWS V14.01,2013-02-03 21:12:00,
2013-02-03 16:18:00,65.8,30.0,30.03,SW,228,4.0,9.0,26,0.00,,,0.00,VWS V14.01,2013-02-03 21:18:00,
2013-02-03 16:23:00,65.8,29.0,30.03,SE,132,0.0,8.0,25,0.00,,,0.00,VWS V14.01,2013-02-03 21:23:00,
2013-02-03 16:28:00,66.0,30.2,30.04,West,260,0.0,8.0,26,0.00,,,0.00,VWS V14.01,2013-02-03 21:28:00,
2013-02-03 16:33:00,66.0,29.2,30.03,WSW,253,2.0,9.0,25,0.00,,,0.00,VWS V14.01,2013-02-03 21:33:00,
2013-02-03 16:38:00,66.1,31.2,30.03,West,260,1.0,4.0,27,0.00,,,0.00,VWS V14.01,2013-02-03 21:38:00,
2013-02-03 16:43:00,65.8,31.8,30.03,West,276,4.0,8.0,28,0.00,,,0.00,VWS V14.01,2013-02-03 21:43:00,
2013-02-03 16:48:00,65.7,30.8,30.03,WSW,239,6.0,9.0,27,0.00,,,0.00,VWS V14.01,2013-02-03 21:48:00,
2013-02-03 16:53:00,65.6,30.8,30.03,WSW,251,9.0,10.0,27,0.00,,,0.00,VWS V14.01,2013-02-03 21:53:00,
2013-02-03 16:58:00,65.6,30.8,30.03,WNW,298,1.0,9.0,27,0.00,,,0.00,VWS V14.01,2013-02-03 21:58:00,
2013-02-03 17:03:00,65.7,30.8,30.03,WSW,253,2.0,6.0,27,0.00,,,0.00,VWS V14.01,2013-02-03 22:03:00,
2013-02-03 17:08:00,65.5,31.6,30.03,WSW,250,0.0,8.0,28,0.00,,,0.00,VWS V14.01,2013-02-03 22:08:00,
2013-02-03 17:13:00,65.4,30.6,30.03,West,264,5.0,8.0,27,0.00,,,0.00,VWS V14.01,2013-02-03 22:13:00,
2013-02-03 17:18:00,65.2,30.4,30.03,SW,220,2.0,8.0,27,0.00,,,0.00,VWS V14.01,2013-02-03 22:18:00,
2013-02-03 17:23:00,65.2,30.4,30.03,SW,226,1.0,7.0,27,0.00,,,0.00,VWS V14.01,2013-02-03 22:23:00,
2013-02-03 17:28:00,65.1,30.3,30.03,WSW,242,3.0,8.0,27,0.00,,,0.00,VWS V14.01,2013-02-03 22:28:00,
2013-02-03 17:33:00,64.9,31.0,30.03,West,281,2.0,6.0,28,0.00,,,0.00,VWS V14.01,2013-02-03 22:33:00,
2013-02-03 17:38:00,64.5,31.6,30.03,West,266,1.0,8.0,29,0.00,,,0.00,VWS V14.01,2013-02-03 22:38:00,
2013-02-03 17:43:00,64.1,32.1,30.03,West,270,2.0,5.0,30,0.00,,,0.00,VWS V14.01,2013-02-03 22:43:00,
2013-02-03 17:48:00,63.7,32.5,30.04,West,266,1.0,5.0,31,0.00,,,0.00,VWS V14.01,2013-02-03 22:48:00,
2013-02-03 17:53:00,63.4,31.5,30.04,West,273,2.0,9.0,30,0.00,,,0.00,VWS V14.01,2013-02-03 22:53:00,
2013-02-03 17:58:00,63.2,32.9,30.04,WSW,256,0.0,5.0,32,0.00,,,0.00,VWS V14.01,2013-02-03 22:58:00,
2013-02-03 18:03:00,62.9,32.6,30.04,WNW,285,3.0,8.0,32,0.00,,,0.00,VWS V14.01,2013-02-03 23:03:00,
2013-02-03 18:08:00,62.6,33.9,30.05,WSW,239,0.0,7.0,34,0.00,,,0.00,VWS V14.01,2013-02-03 23:08:00,
2013-02-03 18:13:00,62.4,34.4,30.05,SSW,204,0.0,3.0,35,0.00,,,0.00,VWS V14.01,2013-02-03 23:13:00,
2013-02-03 18:18:00,62.2,33.5,30.05,WSW,244,1.0,5.0,34,0.00,,,0.00,VWS V14.01,2013-02-03 23:18:00,
2013-02-03 18:23:00,62.0,34.1,30.04,WSW,251,1.0,5.0,35,0.00,,,0.00,VWS V14.01,2013-02-03 23:23:00,
2013-02-03 18:28:00,61.8,33.9,30.04,West,279,0.0,6.0,35,0.00,,,0.00,VWS V14.01,2013-02-03 23:28:00,
2013-02-03 18:33:00,61.6,34.4,30.05,West,276,1.0,4.0,36,0.00,,,0.00,VWS V14.01,2013-02-03 23:33:00,
2013-02-03 18:40:00,61.3,34.1,30.05,West,274,0.0,4.0,36,0.00,,,0.00,VWS V14.01,2013-02-03 23:40:00,
2013-02-03 18:46:00,61.1,34.7,30.05,West,278,4.0,4.0,37,0.00,,,0.00,VWS V14.01,2013-02-03 23:46:00,
2013-02-03 18:52:00,60.8,33.0,30.05,West,272,3.0,4.0,35,0.00,,,0.00,VWS V14.01,2013-02-03 23:52:00,
2013-02-03 18:58:00,60.8,33.0,30.05,WSW,256,1.0,9.0,35,0.00,,,0.00,VWS V14.01,2013-02-03 23:58:00,
2013-02-03 19:03:00,60.8,33.7,30.06,West,277,0.0,4.0,36,0.00,,,0.00,VWS V14.01,2013-02-04 00:03:00,
2013-02-03 19:08:00,60.7,33.6,30.05,West,264,1.0,4.0,36,0.00,,,0.00,VWS V14.01,2013-02-04 00:08:00,
2013-02-03 19:13:00,60.5,33.4,30.05,WSW,253,0.0,4.0,36,0.00,,,0.00,VWS V14.01,2013-02-04 00:13:00,
2013-02-03 19:18:00,60.4,33.3,30.05,West,270,0.0,4.0,36,0.00,,,0.00,VWS V14.01,2013-02-04 00:18:00,
2013-02-03 19:23:00,60.2,34.5,30.06,West,274,0.0,3.0,38,0.00,,,0.00,VWS V14.01,2013-02-04 00:23:00,
2013-02-03 19:28:00,60.1,34.4,30.06,WNW,288,1.0,3.0,38,0.00,,,0.00,VWS V14.01,2013-02-04 00:28:00,
2013-02-03 19:33:00,59.8,34.8,30.06,West,279,0.0,2.0,39,0.00,,,0.00,VWS V14.01,2013-02-04 00:33:00,
2013-02-03 19:38:00,59.6,34.0,30.06,West,279,0.0,3.0,38,0.00,,,0.00,VWS V14.01,2013-02-04 00:38:00,
2013-02-03 19:43:00,59.4,34.5,30.06,West,278,0.0,2.0,39,0.00,,,0.00,VWS V14.01,2013-02-04 00:43:00,
2013-02-03 19:48:00,59.2,36.1,30.06,West,279,0.0,2.0,42,0.00,,,0.00,VWS V14.01,2013-02-04 00:48:00,
2013-02-03 19:53:00,58.9,35.9,30.07,West,278,0.0,1.0,42,0.00,,,0.00,VWS V14.01,2013-02-04 00:53:00,
2013-02-03 19:58:00,58.6,35.6,30.06,West,278,0.0,3.0,42,0.00,,,0.00,VWS V14.01,2013-02-04 00:58:00,
2013-02-03 20:03:00,58.4,36.6,30.06,West,280,0.0,1.0,44,0.00,,,0.00,VWS V14.01,2013-02-04 01:03:00,
2013-02-03 20:08:00,58.2,37.0,30.06,West,278,0.0,1.0,45,0.00,,,0.00,VWS V14.01,2013-02-04 01:08:00,
2013-02-03 20:13:00,58.0,36.8,30.07,West,278,0.0,1.0,45,0.00,,,0.00,VWS V14.01,2013-02-04 01:13:00,
2013-02-03 20:18:00,57.8,37.2,30.07,West,278,0.0,0.0,46,0.00,,,0.00,VWS V14.01,2013-02-04 01:18:00,
2013-02-03 20:23:00,57.6,37.0,30.07,West,279,0.0,1.0,46,0.00,,,0.00,VWS V14.01,2013-02-04 01:23:00,
2013-02-03 20:28:00,57.4,37.3,30.07,West,279,0.0,0.0,47,0.00,,,0.00,VWS V14.01,2013-02-04 01:28:00,
2013-02-03 20:33:00,57.3,37.3,30.07,West,278,0.0,1.0,47,0.00,,,0.00,VWS V14.01,2013-02-04 01:33:00,
2013-02-03 20:38:00,57.1,37.1,30.08,West,279,0.0,1.0,47,0.00,,,0.00,VWS V14.01,2013-02-04 01:38:00,
2013-02-03 20:43:00,57.0,37.0,30.07,West,278,0.0,1.0,47,0.00,,,0.00,VWS V14.01,2013-02-04 01:43:00,
2013-02-03 20:48:00,56.9,36.9,30.08,West,278,0.0,1.0,47,0.00,,,0.00,VWS V14.01,2013-02-04 01:48:00,
2013-02-03 20:53:00,56.8,37.3,30.08,West,279,0.0,1.0,48,0.00,,,0.00,VWS V14.01,2013-02-04 01:53:00,
2013-02-03 20:58:00,56.7,37.8,30.08,West,279,0.0,2.0,49,0.00,,,0.00,VWS V14.01,2013-02-04 01:58:00,
2013-02-03 21:03:00,56.5,38.1,30.08,West,279,0.0,1.0,50,0.00,,,0.00,VWS V14.01,2013-02-04 02:03:00,
2013-02-03 21:08:00,56.4,38.0,30.08,West,279,2.0,2.0,50,0.00,,,0.00,VWS V14.01,2013-02-04 02:08:00,
2013-02-03 21:13:00,56.2,37.8,30.08,West,279,0.0,2.0,50,0.00,,,0.00,VWS V14.01,2013-02-04 02:13:00,
2013-02-03 21:18:00,56.1,38.2,30.08,West,279,0.0,2.0,51,0.00,,,0.00,VWS V14.01,2013-02-04 02:18:00,
2013-02-03 21:23:00,55.9,38.0,30.09,West,279,0.0,2.0,51,0.00,,,0.00,VWS V14.01,2013-02-04 02:23:00,
2013-02-03 21:28:00,55.8,38.0,30.09,West,279,1.0,1.0,51,0.00,,,0.00,VWS V14.01,2013-02-04 02:28:00,
2013-02-03 21:33:00,55.7,37.9,30.09,SW,235,0.0,3.0,51,0.00,,,0.00,VWS V14.01,2013-02-04 02:33:00,
2013-02-03 21:38:00,55.5,37.7,30.09,SW,236,0.0,1.0,51,0.00,,,0.00,VWS V14.01,2013-02-04 02:38:00,
2013-02-03 21:43:00,55.3,37.5,30.09,SW,235,0.0,1.0,51,0.00,,,0.00,VWS V14.01,2013-02-04 02:43:00,
2013-02-03 21:48:00,55.2,37.9,30.09,SW,235,0.0,1.0,52,0.00,,,0.00,VWS V14.01,2013-02-04 02:48:00,
2013-02-03 21:53:00,55.0,37.7,30.09,SW,236,0.0,1.0,52,0.00,,,0.00,VWS V14.01,2013-02-04 02:53:00,
2013-02-03 21:58:00,54.9,37.1,30.09,SW,236,0.0,1.0,51,0.00,,,0.00,VWS V14.01,2013-02-04 02:58:00,
2013-02-03 22:03:00,54.7,36.4,30.09,SW,236,0.0,1.0,50,0.00,,,0.00,VWS V14.01,2013-02-04 03:03:00,
2013-02-03 22:08:00,54.7,34.3,30.10,SW,234,0.0,4.0,46,0.00,,,0.00,VWS V14.01,2013-02-04 03:08:00,
2013-02-03 22:13:00,54.8,35.0,30.10,SW,234,0.0,2.0,47,0.00,,,0.00,VWS V14.01,2013-02-04 03:13:00,
2013-02-03 22:18:00,54.7,35.4,30.10,SW,234,0.0,1.0,48,0.00,,,0.00,VWS V14.01,2013-02-04 03:18:00,
2013-02-03 22:23:00,54.6,35.8,30.10,SW,235,1.0,5.0,49,0.00,,,0.00,VWS V14.01,2013-02-04 03:23:00,
2013-02-03 22:28:00,54.6,35.3,30.10,WSW,248,0.0,7.0,48,0.00,,,0.00,VWS V14.01,2013-02-04 03:28:00,
2013-02-03 22:33:00,54.7,35.9,30.10,SW,229,1.0,4.0,49,0.00,,,0.00,VWS V14.01,2013-02-04 03:33:00,
2013-02-03 22:38:00,54.6,35.8,30.10,West,274,0.0,6.0,49,0.00,,,0.00,VWS V14.01,2013-02-04 03:38:00,
2013-02-03 22:43:00,54.3,35.6,30.11,WSW,253,2.0,6.0,49,0.00,,,0.00,VWS V14.01,2013-02-04 03:43:00,
2013-02-03 22:48:00,54.1,35.9,30.11,WSW,256,2.0,7.0,50,0.00,,,0.00,VWS V14.01,2013-02-04 03:48:00,
2013-02-03 22:53:00,53.9,35.7,30.11,SW,216,0.0,6.0,50,0.00,,,0.00,VWS V14.01,2013-02-04 03:53:00,
2013-02-03 22:58:00,53.7,36.0,30.11,West,272,3.0,4.0,51,0.00,,,0.00,VWS V14.01,2013-02-04 03:58:00,
2013-02-03 23:03:00,53.5,36.3,30.11,WSW,257,0.0,6.0,52,0.00,,,0.00,VWS V14.01,2013-02-04 04:03:00,
2013-02-03 23:08:00,53.3,36.1,30.11,WSW,248,2.0,8.0,52,0.00,,,0.00,VWS V14.01,2013-02-04 04:08:00,
2013-02-03 23:13:00,53.2,36.5,30.11,West,269,3.0,8.0,53,0.00,,,0.00,VWS V14.01,2013-02-04 04:13:00,
2013-02-03 23:18:00,53.1,36.4,30.11,West,268,2.0,7.0,53,0.00,,,0.00,VWS V14.01,2013-02-04 04:18:00,
2013-02-03 23:23:00,52.9,36.7,30.11,West,259,0.0,8.0,54,0.00,,,0.00,VWS V14.01,2013-02-04 04:23:00,
2013-02-03 23:28:00,52.8,37.1,30.11,SW,231,0.0,6.0,55,0.00,,,0.00,VWS V14.01,2013-02-04 04:28:00,
2013-02-03 23:33:00,52.6,37.4,30.11,WSW,238,0.0,3.0,56,0.00,,,0.00,VWS V14.01,2013-02-04 04:33:00,
2013-02-03 23:38:00,52.4,37.2,30.11,WSW,241,2.0,4.0,56,0.00,,,0.00,VWS V14.01,2013-02-04 04:38:00,
2013-02-03 23:43:00,52.3,37.5,30.10,SW,231,3.0,4.0,57,0.00,,,0.00,VWS V14.01,2013-02-04 04:43:00,
2013-02-03 23:48:00,52.1,37.3,30.11,West,268,2.0,4.0,57,0.00,,,0.00,VWS V14.01,2013-02-04 04:48:00,
2013-02-03 23:53:00,52.0,37.7,30.10,WSW,258,2.0,4.0,58,0.00,,,0.00,VWS V14.01,2013-02-04 04:53:00,
2013-02-03 23:58:00,51.8,37.9,30.10,West,268,3.0,5.0,59,0.00,,,0.00,VWS V14.01,2013-02-04 04:58:00,